Location: Central Falls
(41.8900°N, 71.3929°W)
Time: 19:21:10
(UTC+00:00)

Cosmos 1328 Rocket - Visible Passes

Search period start: 26 May 2024 00:00
Search period end: 05 June 2024 00:00
Orbit: 597 x 624 km, 82.5° (Epoch: 26 May)

Date Brightness Start Highest point End Pass type
(mag) Time Alt. Az. Time Alt. Az. Time Alt. Az.
26 May 4.4 02:36:03 33° E 02:36:03 33° E 02:39:51 10° NNE visible
26 May 5.5 04:13:00 20° W 04:13:43 20° WNW 04:16:58 10° NNW visible
27 May 3.5 02:50:18 59° ESE 02:50:30 59° E 02:54:46 10° NNE visible
27 May 6.1 04:27:15 11° W 04:28:36 12° WNW 04:30:21 10° NW visible
28 May 3.5 03:04:31 63° SW 03:05:07 76° W 03:09:27 10° N visible
29 May 5.3 01:41:46 15° E 01:42:31 16° E 01:45:06 10° NE visible
29 May 4.5 03:18:43 35° WSW 03:19:48 42° WNW 03:23:55 10° N visible
30 May 4.6 01:55:55 24° ESE 01:56:56 27° E 02:00:34 10° NNE visible
30 May 5.4 03:32:52 19° WSW 03:34:34 25° WNW 03:38:07 10° NNW visible
31 May 3.8 02:10:03 34° SE 02:11:27 47° E 02:15:35 10° NNE visible
31 May 6.1 03:47:00 10° WSW 03:49:25 15° WNW 03:51:52 10° NW visible
01 Jun 3.4 02:24:09 33° S 02:26:01 86° ESE 02:30:20 10° N visible
02 Jun 5.5 01:01:37 10° ESE 01:03:30 13° E 01:05:23 10° ENE visible
02 Jun 4.1 02:38:12 23° SSW 02:40:40 52° W 02:44:53 10° N visible
03 Jun 4.9 01:15:16 13° SE 01:17:54 22° E 01:21:12 10° NE visible
03 Jun 5.2 02:52:12 13° SW 02:55:23 30° WNW 02:59:12 10° NNW visible
04 Jun 4.1 01:29:14 15° SSE 01:32:22 38° E 01:36:21 10° NNE visible
04 Jun 6.0 03:07:15 10° WSW 03:10:12 18° WNW 03:13:10 10° NNW visible
